Regional Weather Roundup
Issued by NWS

Home | Current Version | Previous Version | Graphics & Text | Print | Product List | Glossary On
Versions: 1 2 3 4 5 6 7 8 9 10 11 12 13 14 15 16 17 18 19 20 21 22 23 24 25 26 27 28 29 30 31 32 33 34 35 36 37 38 39 40 41 42 43 44 45 46 47 48 49 50
000
ASUS43 KOAX 271502
RWRNE

WEATHER ROUNDUP FOR NEBRASKA
NATIONAL WEATHER SERVICE OMAHA NE
1000 AM CDT THU APR 27 2017

NOTES: SATELLITE DATA IS BEING USED TO AUGMENT CLOUD COVER ABOVE
       12000 FEET.
       "FAIR" INDICATES FEW OR NO CLOUDS BELOW 12,000 FEET WITH NO
       SIGNIFICANT WEATHER AND/OR OBSTRUCTIONS TO VISIBILITY.

  * THESE STATIONS DO NOT REPORT WEATHER SUCH AS RAIN...SNOW OR FOG.

NEZ001>004-019>022-054>056-271600-
NEBRASKA PANHANDLE

CITY           SKY/WX    TMP DP  RH WIND       PRES   REMARKS
SCOTTSBLUFF    CLOUDY    42  37  82 E13       29.58S
ALLIANCE       CLOUDY    40  32  73 SE14      29.59F WCI  32
CHADRON        PTSUNNY   39  33  79 NE7       29.62F WCI  34
KIMBALL        CLOUDY    48  40  74 W8        29.58F
SIDNEY         CLOUDY    40  37  89 N7        29.60R
$$

NEZ057>060-069>072-079>082-271600-
SOUTHWEST NEBRASKA

CITY           SKY/WX    TMP DP  RH WIND       PRES   REMARKS
NORTH PLATTE   PTSUNNY   45  33  63 E12       29.66F
IMPERIAL       CLOUDY    43  33  68 SE12      29.61F
LEXINGTON      PTSUNNY   43  31  62 E5        29.69F
MCCOOK         CLOUDY    42  32  67 SE14      29.67R
OGALLALA       CLOUDY    44  34  68 E12       29.63S
$$

NEZ005>010-023>029-035>040-094-271600-
NORTH CENTRAL NEBRASKA

CITY           SKY/WX    TMP DP  RH WIND       PRES   REMARKS
VALENTINE      SUNNY     40  28  62 NE7       29.68F
AINSWORTH      SUNNY     38  32  79 NE6       29.69S WCI  33
BROKEN BOW     CLOUDY    42  33  70 S5        29.69R
O`NEILL        CLOUDY    35  31  85 N9        29.72F WCI  27
ORD            SUNNY     41  32  70 NW5       29.69F
THEDFORD       MOSUNNY   43  32  66 NE3       29.68S
$$

NEZ041-046>049-061>064-073>077-083>087-271600-
SOUTH CENTRAL NEBRASKA

CITY           SKY/WX    TMP DP  RH WIND       PRES   REMARKS
GRAND ISLAND   SUNNY     45  33  63 VRB5      29.73R
AURORA         SUNNY     44  31  60 NW6       29.72R
HASTINGS       CLOUDY    44  32  62 N3        29.74R
HEBRON         PTSUNNY   45  32  60 CALM      29.75R
HOLDREGE       CLOUDY    42  30  62 E7        29.70S
KEARNEY *      CLOUDY    39  30  70 CALM      29.72S
YORK           SUNNY     45  32  61 NE8       29.72F
$$

NEZ011>018-030>034-042>045-271600-
NORTHEAST NEBRASKA

CITY           SKY/WX    TMP DP  RH WIND       PRES   REMARKS
NORFOLK        CLOUDY    36  29  75 NW10      29.71R WCI  28
ALBION         PTSUNNY   38  31  76 N8        29.72S WCI  32
BLAIR          CLOUDY    37  31  78 NW12      29.72S WCI  30
FREMONT        CLOUDY    38  31  77 NW9       29.73S WCI  31
TEKAMAH        CLOUDY    38  29  70 NW15      29.73S WCI  29
WAYNE          CLOUDY    35  30  80 NW8       29.72R WCI  29
$$

NEZ050>053-065>068-078-088>093-271600-
SOUTHEAST NEBRASKA

CITY           SKY/WX    TMP DP  RH WIND       PRES   REMARKS
LINCOLN        SUNNY     46  31  55 NW13      29.74S
OMAHA EPPLEY   CLOUDY    40  31  70 NW9       29.73S WCI  34
BEATRICE       SUNNY     45  33  62 W6        29.74S
FALLS CITY     SUNNY     47  34  60 W13       29.73R
NEBRASKA CITY  MOSUNNY   44  31  61 NW6       29.72S
PLATTSMOUTH    CLOUDY    41  31  66 NW7       29.72S
$$

NEZ044-045-051>053-067-271600-
OMAHA AREA

CITY           SKY/WX    TMP DP  RH WIND       PRES   REMARKS
OMAHA EPPLEY   CLOUDY    40  31  70 NW9       29.73S WCI  34
BLAIR          CLOUDY    37  31  78 NW12      29.72S WCI  30
FREMONT        CLOUDY    38  31  77 NW9       29.73S WCI  31
MILLARD        CLOUDY    42  33  72 NW7       29.73S
OFFUTT AFB     CLOUDY    43  30  58 VRB7      29.72S
PLATTSMOUTH    CLOUDY    41  31  66 NW7       29.72S
WAHOO          CLOUDY    40  32  74 N12       29.73S WCI  32
$$




USA.gov is the U.S. government's official web portal to all federal, state and local government web resources and services.